Regional Weather Roundup
Issued by NWS Columbia, SC

Home | Current Version | Previous Version | Text Only | Print | Product List | Glossary On
Versions: 1 2 3 4 5 6 7 8 9 10 11 12 13 14 15 16 17 18 19 20 21 22 23 24 25 26 27 28 29 30 31 32 33 34 35 36 37 38 39 40 41 42 43 44 45 46 47 48 49 50
000
ASUS42 KCAE 012310
RWRCAE
REGIONAL WEATHER ROUNDUP
NATIONAL WEATHER SERVICE COLUMBIA SC
700 PM EDT FRI AUG 01 2014

NOTE: "FAIR" INDICATES FEW OR NO CLOUDS BELOW 12,000 FEET WITH NO
SIGNIFICANT WEATHER AND/OR OBSTRUCTIONS TO VISIBILITY.

NOT ALL STATIONS ARE QUALITY CONTROLLED BY THE NATIONAL
WEATHER SERVICE. USE DATA WITH CAUTION...ESPECIALLY
DEWPOINT OBSERVATIONS.

SCZ001>056-GAZ040-063>065-077-020000-
...UPSTATE SOUTH CAROLINA...

CITY           SKY/WX    TMP DP  RH WIND       PRES   REMARKS
ANDERSON       MOSUNNY   73  62  68 NE7       30.08R
LIBERTY        MOCLDY    72  72 100 E10       30.09R
SPARTANBURG    CLOUDY    68  64  88 N12       30.09S
CLEMSON        SUNNY     75  61  61 E10G18    30.09R
GREENVILLE     PTSUNNY   69  61  75 NE15      30.11R
GREENWOOD      CLOUDY    70  63  78 N8        30.08S
GREER          CLOUDY    68  62  81 NE12G20   30.09S
ROCK HILL      CLOUDY    70  66  87 NE8       30.07F
CHESTER        CLOUDY    72  70  94 N7        30.07S
LAURENS        CLOUDY    68 N/A N/A N6        30.09R


...CENTRAL SOUTH CAROLINA...

CITY           SKY/WX    TMP DP  RH WIND       PRES   REMARKS
COLUMBIA APT   CLOUDY    76  69  79 VRB7      30.02S
COLUMBIA OWENS CLOUDY    76  69  79 VRB5      30.03S
DARLINGTON     CLOUDY    77  70  78 N12       30.02S
FLORENCE       CLOUDY    77  71  82 CALM      30.00S
MCENTIRE ANGB  CLOUDY    78  71  80 N6        30.03R
ORANGEBURG     CLOUDY    82  72  71 N8        30.01R
SUMTER SHAW    CLOUDY    78  73  85 N7        30.00R
NEWBERRY       CLOUDY    68  68 100 N7        30.09S
AIKEN          CLOUDY    72  72 100 N10       30.07S
BARNWELL       FAIR      84  72  65 N6        30.00R
MANNING        MOCLDY    77  77 100 CALM      30.01R THUNDER
CAMDEN         FAIR      75  72  88 N6        30.04R
LANCASTER      LGT RAIN  73  73 100 N7        30.05S
WINNSBORO      CLOUDY    70  70 100 N9        30.05R


...EASTERN AND COASTAL SOUTH CAROLINA...

CITY           SKY/WX    TMP DP  RH WIND       PRES   REMARKS
MYRTLE BEACH   PTSUNNY   81  73  78 S9        30.00S
N MYRTLE BCH   CLOUDY    80  73  79 S7        30.00S
CONWAY         FAIR      79  73  83 SE6       30.00S
MARION         FAIR      81  73  78 CALM      30.00S
HARTSVILLE     FAIR      77  61  57 N6        30.03S
FLORENCE       CLOUDY    77  71  82 CALM      30.00S
DARLINGTON     CLOUDY    77  70  78 N12       30.02S
CHARLESTON APT CLOUDY    82  73  74 S8        30.00R
MOUNT PLEASANT MOCLDY    81  73  78 CALM      29.99R
BEAUFORT       CLOUDY    81  74  79 CALM      30.00R


...EASTERN GEORGIA...

CITY           SKY/WX    TMP DP  RH WIND       PRES   REMARKS
AUGUSTA BUSH F CLOUDY    76  68  76 N14       30.01S
AUGUSTA DANIEL CLOUDY    74  68  81 N10       30.04S
THOMSON        PTSUNNY   74  72  93 CALM      30.08S
STATESBORO     CLOUDY    75  75 100 CALM      30.00S
SAVANNAH       PTSUNNY   81  74  79 E5        29.99R


...SOUTHERN NORTH CAROLINA...

CITY           SKY/WX    TMP DP  RH WIND       PRES   REMARKS
CHARLOTTE      CLOUDY    68  63  84 N13G20    30.07F
MONROE         CLOUDY    71  67  87 NE9       30.06F
ROCKINGHAM       N/A     70  70 100 NE6       30.05S
ASHEVILLE      CLOUDY    69  59  70 E6        30.14R

$$


USA.gov is the U.S. government's official web portal to all federal, state and local government web resources and services.